Location: Ch�teau-Arnoux
(44.0814°N, 6.0027°E)
Time: 03:25:27
(UTC+00:00)

STARLINK-78 - Pass Details

Date: 15 November 2019
Orbit: 529 x 531 km, 53.0° (Epoch: 11 December)

Event Time Altitude Azimuth Distance (km) Brightness Sun altitude
Rises 05:32:17 0° 223° (SW) 2,654 6.8 -10.6°
Reaches altitude 10° 05:34:30 10° 219° (SW) 1,766 6.0 -10.3°
Maximum altitude 05:38:25 57° 140° (SE) 628 4.2 -9.6°
Drops below altitude 10° 05:42:24 10° 62° (ENE) 1,796 6.9 -8.9°
Sets 05:44:40 0° 58° (ENE) 2,705 7.8 -8.5°
